Weather Service Report


632 
ASUS42 KCAE 011610
RWRCAE
REGIONAL WEATHER ROUNDUP
NATIONAL WEATHER SERVICE COLUMBIA SC
1200 PM EDT WED JUL 01 2015

NOTE: "FAIR" INDICATES FEW OR NO CLOUDS BELOW 12,000 FEET WITH NO
SIGNIFICANT WEATHER AND/OR OBSTRUCTIONS TO VISIBILITY.

NOT ALL STATIONS ARE QUALITY CONTROLLED BY THE NATIONAL 
WEATHER SERVICE. USE DATA WITH CAUTION...ESPECIALLY 
DEWPOINT OBSERVATIONS.

SCZ001>056-GAZ040-063>065-077-011700-
...UPSTATE SOUTH CAROLINA...
  
CITY           SKY/WX    TMP DP  RH WIND       PRES   REMARKS
ANDERSON       SUNNY     80  68  66 W7        30.04R                  
SPARTANBURG      N/A     82  68  61 W8        30.02R                  
CLEMSON        SUNNY     80  68  66 SW7       30.05S                  
GREENVILLE     SUNNY     81  66  60 VRB7      30.03R                  
GREENWOOD      MOSUNNY   81  69  67 W9        30.05R                  
GREER          SUNNY     80  67  64 SW8       30.01R                  
ROCK HILL      SUNNY     80  68  66 SW6       30.01S                  
CHESTER        SUNNY     81  66  61 CALM      30.02S HAZE             


...CENTRAL SOUTH CAROLINA...
  
CITY           SKY/WX    TMP DP  RH WIND       PRES   REMARKS
COLUMBIA APT   CLOUDY    81  69  67 SW8       30.01S                  
COLUMBIA OWENS SUNNY     81  69  67 SW7       30.03R                  
DARLINGTON     PTSUNNY   79  70  73 SW8       30.02R                  
FLORENCE       PTSUNNY   80  70  71 VRB6      30.00S                  
MCENTIRE ANGB  CLOUDY    81  71  69 SW8       30.02R                  
ORANGEBURG     SUNNY     80  69  69 W9        30.03S                  
SUMTER SHAW    PTSUNNY   80  71  72 SW7       30.00R                  
NEWBERRY       MOSUNNY   79  68  69 SW12      30.06R                  
BARNWELL       FAIR      82  72  69 W8        30.05R                  
MANNING        FAIR      79  68  69 SW6       30.02S                  
CAMDEN         FAIR      81  68  65 SW8       30.02R                  
LANCASTER      PTSUNNY   77  73  88 SE3       30.01F                  
WINNSBORO      SUNNY     81  68  65 SW7       30.02S                  


...EASTERN AND COASTAL SOUTH CAROLINA...
  
CITY           SKY/WX    TMP DP  RH WIND       PRES   REMARKS
MYRTLE BEACH   PTSUNNY   81  70  69 W6        30.02F                  
N MYRTLE BCH   PTSUNNY   80  71  74 VRB6      30.00S                  
CONWAY         CLOUDY    79  72  78 SW6       30.01S                  
MARION         CLOUDY    79  70  73 CALM      30.01S                  
HARTSVILLE     PTSUNNY   79  68  69 SW3       30.01R                  
FLORENCE       PTSUNNY   80  70  71 VRB6      30.00S                  
DARLINGTON     PTSUNNY   79  70  73 SW8       30.02R                  
CHARLESTON APT PTSUNNY   82  70  66 W7        30.03S                  
MOUNT PLEASANT FAIR      82  72  69 SW7       30.03S                  
WALTERBORO     MOSUNNY   79  70  73 W9        30.04S                  
BEAUFORT       PTSUNNY   83  71  67 W13       30.04F                  


...EASTERN GEORGIA...
  
CITY           SKY/WX    TMP DP  RH WIND       PRES   REMARKS
AUGUSTA BUSH F SUNNY     82  70  66 SW10      30.03S                  
AUGUSTA DANIEL SUNNY     82  69  64 S6        30.05S                  
THOMSON        SUNNY     83  74  73 SW5       30.09R                  
WASHINGTON     FAIR      82  75  78 W8        30.06R                  
CLAXTON        PTSUNNY   81  72  74 SW10G17   30.07F                  
SYLVANIA       PTSUNNY   82  74  76 W8        30.07S                  
STATESBORO     PTSUNNY   82  75  80 SW10      30.07S                  
SAVANNAH       PTSUNNY   82  70  66 SW9       30.06F                  


...SOUTHERN NORTH CAROLINA...
  
CITY           SKY/WX    TMP DP  RH WIND       PRES   REMARKS
CHARLOTTE      SUNNY     82  64  54 CALM      30.00S                  
MONROE         SUNNY     80  68  66 SW6       29.99S                  
WADESBORO      SUNNY     81  69  66 SE3       29.99S                  
ROCKINGHAM     MOSUNNY   78  70  74 S6        30.00S                  
RUTHERFORDTON  SUNNY     81  66  60 SW6       30.01F                  
ASHEVILLE      PTSUNNY   77  60  55 N5        30.07S                  

$$

Return to Home page


Western Regional Climate Center, wrcc@dri.edu